,,PA_Meas_PMT16A,,PR_Meas_QMR101_102,,RH_Meas_QMH101,,SR_Meas_QMS101,,TA_Meas_QMH101,,GenWind,,GenWind,
time,status,PA,status,PR,status,RH,status,SR,status,TA,status,DirAvg,status,SpdAvg,
2012-11-24, 07:25:04,INVALID - VALUE NOT AVAILABLE,0,INVALID - VALUE NOT AVAILABLE,0,INVALID - VALUE NOT AVAILABLE,0,INVALID - VALUE NOT AVAILABLE,0,INVALID - VALUE NOT AVAILABLE,0,INVALID,360,INVALID,0,
2012-11-24, 07:47:04,VALID,917.213,VALID,0,VALID,97.4654,VALID,147.732,VALID,19.7643,VALID,16,VALID,0,
2012-11-24, 07:48:04,VALID,917.398,VALID,0,VALID,97.4501,VALID,150.525,VALID,19.6653,VALID,16,VALID,0,
2012-11-24, 07:49:04,VALID,917.317,VALID,0,VALID,97.4273,VALID,153.641,VALID,19.7043,VALID,16,VALID,0,
2012-11-24, 07:50:04,VALID,917.302,VALID,0,VALID,97.4273,VALID,156.649,VALID,19.7028,VALID,16,VALID,0,
2012-11-24, 07:51:04,VALID,917.076,VALID,0,VALID,97.4044,VALID,159.872,VALID,19.7823,VALID,16,VALID,0,
2012-11-24, 07:52:04,VALID,917.289,VALID,0,VALID,97.4044,VALID,162.988,VALID,19.8408,VALID,16,VALID,0,
2012-11-24, 07:53:04,VALID,917.258,VALID,0,VALID,97.351,VALID,165.997,VALID,19.8213,VALID,16,VALID,0,
2012-11-24, 07:54:04,VALID,917.325,VALID,0,VALID,97.3358,VALID,169.112,VALID,19.8603,VALID,16,VALID,0,
2012-11-24, 07:55:04,VALID,917.235,VALID,0,VALID,97.3053,VALID,172.013,VALID,19.8603,VALID,16,VALID,0,
2012-11-24, 07:56:04,VALID,917.177,VALID,0,VALID,97.2672,VALID,174.699,VALID,19.8798,VALID,16,VALID,0,
2012-11-24, 07:57:04,VALID,917.243,VALID,0,VALID,97.2519,VALID,177.493,VALID,19.9188,VALID,33,VALID,0,
2012-11-24, 07:58:04,VALID,917.357,VALID,0,VALID,97.229,VALID,180.394,VALID,19.9578,VALID,19,VALID,0,
2012-11-24, 07:59:04,VALID,917.295,VALID,0,VALID,97.1986,VALID,183.295,VALID,20.0358,VALID,17,VALID,0,
2012-11-24, 08:00:04,VALID,917.341,VALID,0,VALID,97.1833,VALID,187.055,VALID,20.1139,VALID,17,VALID,0,
2012-11-24, 08:01:04,VALID,917.39,VALID,0,VALID,97.1833,VALID,190.815,VALID,20.1513,VALID,31,VALID,0,
2012-11-24, 08:02:04,VALID,917.493,VALID,0,VALID,97.1147,VALID,195.006,VALID,20.1513,VALID,32,VALID,0,
2012-11-24, 08:03:04,VALID,917.422,VALID,0,VALID,97.0613,VALID,199.518,VALID,20.2293,VALID,33,VALID,0,
2012-11-24, 08:04:04,VALID,917.408,VALID,0,VALID,97.0003,VALID,204.246,VALID,20.2699,VALID,26,VALID,0,
2012-11-24, 08:05:04,VALID,917.435,VALID,0,VALID,96.9165,VALID,209.08,VALID,20.2699,VALID,27,VALID,0,
2012-11-24, 08:06:04,VALID,917.464,VALID,0,VALID,96.8098,VALID,214.023,VALID,20.3089,VALID,21,VALID,0,
2012-11-24, 08:07:04,VALID,917.44,VALID,0,VALID,96.7335,VALID,218.75,VALID,20.3269,VALID,21,VALID,0,
2012-11-24, 08:08:04,VALID,917.536,VALID,0,VALID,96.6954,VALID,223.37,VALID,20.3854,VALID,11,VALID,0,
2012-11-24, 08:09:04,VALID,917.646,VALID,0,VALID,96.6725,VALID,227.668,VALID,20.4845,VALID,348,VALID,0,
2012-11-24, 08:10:04,VALID,917.512,VALID,0,VALID,96.6497,VALID,231.321,VALID,20.5235,VALID,348,VALID,0,
2012-11-24, 08:11:04,VALID,917.381,VALID,0,VALID,96.5582,VALID,234.329,VALID,20.5235,VALID,349,VALID,0,
2012-11-24, 08:12:04,VALID,917.499,VALID,0,VALID,96.4515,VALID,237.123,VALID,20.5219,VALID,48,VALID,0,
2012-11-24, 08:13:04,VALID,917.558,VALID,0,VALID,95.8797,VALID,240.131,VALID,20.5414,VALID,48,VALID,0,
2012-11-24, 08:14:04,VALID,917.62,VALID,0,VALID,95.8645,VALID,243.677,VALID,20.543,VALID,43,VALID,0,
2012-11-24, 08:15:04,VALID,917.608,VALID,0,VALID,95.8568,VALID,248.297,VALID,20.621,VALID,27,VALID,0,
2012-11-24, 08:16:04,VALID,917.661,VALID,0,VALID,96.0932,VALID,253.669,VALID,20.7396,VALID,27,VALID,0,
2012-11-24, 08:17:04,VALID,917.714,VALID,0,VALID,96.1694,VALID,260.222,VALID,20.7576,VALID,28,VALID,0,
2012-11-24, 08:18:04,VALID,917.696,VALID,0,VALID,95.6586,VALID,266.776,VALID,20.7381,VALID,7,VALID,0,
2012-11-24, 08:19:04,VALID,917.724,VALID,0,VALID,95.2241,VALID,272.363,VALID,20.7982,VALID,39,VALID,0,
2012-11-24, 08:20:04,VALID,917.767,VALID,0,VALID,95.3003,VALID,275.049,VALID,20.8551,VALID,29,VALID,0,
2012-11-24, 08:21:04,VALID,917.781,VALID,0,VALID,94.7209,VALID,280.636,VALID,20.8941,VALID,15,VALID,0,
2012-11-24, 08:22:04,VALID,918.181,VALID,0,VALID,94.6447,VALID,284.827,VALID,20.9722,VALID,15,VALID,0,
2012-11-24, 08:23:04,VALID,917.805,VALID,0,VALID,94.5532,VALID,284.504,VALID,21.0307,VALID,13,VALID,0,
2012-11-24, 08:24:04,VALID,917.749,VALID,0,VALID,94.3398,VALID,288.157,VALID,21.1282,VALID,3,VALID,0,
2012-11-24, 08:25:04,VALID,917.672,VALID,0,VALID,93.6918,VALID,292.67,VALID,21.2063,VALID,3,VALID,0,
2012-11-24, 08:26:04,VALID,917.927,VALID,0,VALID,93.768,VALID,299.009,VALID,21.3234,VALID,9,VALID,0,
2012-11-24, 08:27:04,VALID,917.779,VALID,0,VALID,91.1227,VALID,309.968,VALID,21.3624,VALID,22,VALID,0,
2012-11-24, 08:28:04,VALID,917.735,VALID,0,VALID,90.7339,VALID,326.729,VALID,21.4209,VALID,5,VALID,0,
2012-11-24, 08:29:04,VALID,917.633,VALID,0,VALID,89.3083,VALID,348.109,VALID,21.4014,VALID,355,VALID,0,
2012-11-24, 08:30:04,VALID,917.796,VALID,0,VALID,89.3083,VALID,373.036,VALID,21.499,VALID,32,VALID,0,
2012-11-24, 08:31:04,VALID,917.794,VALID,0,VALID,90.4061,VALID,378.837,VALID,21.6356,VALID,32,VALID,0,
2012-11-24, 08:32:04,VALID,917.839,VALID,0,VALID,90.1164,VALID,381.094,VALID,21.7136,VALID,22,VALID,0,
2012-11-24, 08:33:04,VALID,917.831,VALID,0,VALID,90.9778,VALID,374.54,VALID,21.7933,VALID,352,VALID,0,
2012-11-24, 08:34:04,VALID,917.817,VALID,0,VALID,89.2016,VALID,353.589,VALID,21.8697,VALID,325,VALID,0,
2012-11-24, 08:35:04,INVALID,914.661,VALID,0,VALID,89.072,VALID,343.919,VALID,21.8892,VALID,325,VALID,0,
2012-11-24, 08:36:04,VALID,917.968,VALID,0,VALID,88.546,VALID,344.349,VALID,21.9071,VALID,321,VALID,0,
2012-11-24, 08:37:04,VALID,917.988,VALID,0,VALID,88.5993,VALID,351.977,VALID,21.9071,VALID,1,VALID,0,
2012-11-24, 08:38:04,VALID,917.989,VALID,0,VALID,88.8967,VALID,367.019,VALID,22.0454,VALID,313,VALID,0,
2012-11-24, 08:39:04,VALID,917.989,VALID,0,VALID,86.5563,VALID,382.598,VALID,22.0242,VALID,318,VALID,0,
2012-11-24, 08:40:04,VALID,917.963,VALID,0,VALID,84.4903,VALID,400.326,VALID,21.9851,VALID,300,VALID,0,
2012-11-24, 08:41:04,VALID,918.149,VALID,0,VALID,86.724,VALID,416.334,VALID,22.1022,VALID,300,VALID,0,
2012-11-24, 08:42:04,VALID,917.94,VALID,0,VALID,84.1396,VALID,425.682,VALID,22.1022,VALID,330,VALID,0,
2012-11-24, 08:43:04,VALID,917.922,VALID,0,VALID,85.9921,VALID,408.384,VALID,22.1413,VALID,327,VALID,0,
2012-11-24, 08:44:04,VALID,917.852,VALID,0,VALID,86.2056,VALID,378.085,VALID,22.1217,VALID,327,VALID,0,
2012-11-24, 08:45:04,VALID,917.965,VALID,0,VALID,88.0505,VALID,340.696,VALID,22.1998,VALID,324,VALID,0,
2012-11-24, 08:46:04,VALID,917.992,VALID,0,VALID,87.8751,VALID,319.852,VALID,22.2974,VALID,316,VALID,0,
2012-11-24, 08:47:04,VALID,918.035,VALID,0,VALID,81.8298,VALID,310.612,VALID,22.2405,VALID,360,VALID,0,
2012-11-24, 08:48:04,VALID,918.044,VALID,0,VALID,85.5576,VALID,305.778,VALID,22.2974,VALID,16,VALID,0,
2012-11-24, 08:49:04,VALID,918.115,VALID,0,VALID,84.3455,VALID,303.091,VALID,22.3169,VALID,290,VALID,0,
2012-11-24, 08:50:04,VALID,918.105,VALID,0,VALID,86.3504,VALID,300.298,VALID,22.2779,VALID,294,VALID,0,
2012-11-24, 08:51:04,VALID,918.241,VALID,0,VALID,85.2374,VALID,297.934,VALID,22.1625,VALID,294,VALID,0,
2012-11-24, 08:52:04,VALID,918.228,VALID,0,VALID,88.3478,VALID,295.141,VALID,22.0827,VALID,294,VALID,0,
2012-11-24, 08:53:04,VALID,918.432,VALID,0,VALID,89.7962,VALID,292.455,VALID,22.1625,VALID,293,VALID,0,
2012-11-24, 08:54:04,VALID,918.281,VALID,0,VALID,89.133,VALID,290.843,VALID,22.1998,VALID,297,VALID,0,
2012-11-24, 08:55:04,VALID,918.205,VALID,0,VALID,86.846,VALID,288.265,VALID,22.1608,VALID,305,VALID,0,
2012-11-24, 08:56:04,VALID,918.259,VALID,0,VALID,84.1396,VALID,287.298,VALID,22.081,VALID,297,VALID,0,
2012-11-24, 08:57:04,VALID,917.821,VALID,0,VALID,87.7074,VALID,286.76,VALID,22.1022,VALID,297,VALID,0,
2012-11-24, 08:58:04,VALID,918.205,VALID,0,VALID,88.2105,VALID,285.256,VALID,22.1608,VALID,1,VALID,0,
2012-11-24, 08:59:04,VALID,917.798,VALID,0,VALID,87.5626,VALID,284.182,VALID,22.2193,VALID,356,VALID,0,
2012-11-24, 09:00:04,VALID,918.159,VALID,0,VALID,86.9603,VALID,282.785,VALID,22.2193,VALID,327,VALID,0,
2012-11-24, 09:01:04,VALID,916.921,VALID,0,VALID,87.2881,VALID,282.463,VALID,22.2193,VALID,356,VALID,0,
2012-11-24, 09:02:04,VALID,918.319,VALID,0,VALID,89.6895,VALID,283,VALID,22.2583,VALID,354,VALID,0,
2012-11-24, 09:03:04,VALID,917.708,VALID,0,VALID,87.6769,VALID,283.322,VALID,22.1981,VALID,349,VALID,0,
2012-11-24, 09:04:04,VALID,918.274,VALID,0,VALID,88.1267,VALID,284.504,VALID,22.2974,VALID,339,VALID,0,
2012-11-24, 09:05:04,VALID,918.383,VALID,0,VALID,88.3249,VALID,285.364,VALID,22.3169,VALID,339,VALID,0,
2012-11-24, 09:06:04,VALID,918.257,VALID,0,VALID,88.3554,VALID,287.083,VALID,22.3169,VALID,19,VALID,0,
2012-11-24, 09:07:04,VALID,918.321,VALID,0,VALID,86.5486,VALID,289.554,VALID,22.2779,VALID,1,VALID,0,
2012-11-24, 09:08:04,VALID,918.416,VALID,0,VALID,88.02,VALID,293.744,VALID,22.2779,VALID,15,VALID,0,
2012-11-24, 09:09:04,VALID,919.259,VALID,0,VALID,89.7124,VALID,299.438,VALID,22.3542,VALID,15,VALID,0,
2012-11-24, 09:10:04,VALID,918.473,VALID,0,VALID,85.4356,VALID,306.637,VALID,22.3771,INVALID,360,VALID,0,
2012-11-24, 09:11:04,VALID,918.412,VALID,0,VALID,86.8917,VALID,317.059,VALID,22.4942,VALID,17,VALID,0,
2012-11-24, 09:12:04,VALID,918.404,VALID,0,VALID,88.2487,VALID,331.134,VALID,22.5918,VALID,16,VALID,0,
2012-11-24, 09:13:04,VALID,918.44,VALID,0,VALID,85.0545,VALID,341.77,VALID,22.6487,VALID,1,VALID,0,
2012-11-24, 09:14:04,VALID,918.677,VALID,0,VALID,86.2132,VALID,344.134,VALID,22.7853,VALID,24,VALID,0,
2012-11-24, 09:15:04,VALID,918.413,VALID,0,VALID,86.2132,VALID,366.589,VALID,22.8829,VALID,23,VALID,0,
2012-11-24, 09:16:04,VALID,918.461,VALID,0,VALID,85.0011,VALID,382.061,VALID,23,VALID,28,VALID,0,
2012-11-24, 09:17:04,VALID,918.807,VALID,0,VALID,83.3011,VALID,385.177,VALID,23.0568,VALID,6,VALID,0,
2012-11-24, 09:18:04,VALID,918.398,VALID,0,VALID,78.5669,VALID,371.317,VALID,23.0959,VALID,13,VALID,0,
2012-11-24, 09:19:04,VALID,918.331,VALID,0,VALID,81.2046,VALID,354.771,VALID,23.1349,VALID,22,VALID,0,
2012-11-24, 09:20:04,VALID,918.385,VALID,0,VALID,78.849,VALID,347.035,VALID,23.1739,VALID,346,VALID,0,
2012-11-24, 09:21:04,VALID,918.556,VALID,0,VALID,80.8006,VALID,342.522,VALID,23.1739,VALID,24,VALID,0,
2012-11-24, 09:22:04,VALID,916.934,VALID,0,VALID,81.5324,VALID,340.803,VALID,23.213,VALID,29,VALID,0,
2012-11-24, 09:23:04,VALID,918.636,VALID,0,VALID,81.7154,VALID,341.878,VALID,23.1722,VALID,18,VALID,0,
2012-11-24, 09:24:04,VALID,918.529,VALID,0,VALID,83.8804,VALID,343.704,VALID,23.2325,VALID,323,VALID,0,
2012-11-24, 09:25:04,VALID,918.519,VALID,0,VALID,80.9912,VALID,345.746,VALID,23.1917,VALID,319,VALID,0,
2012-11-24, 09:26:04,VALID,918.674,VALID,0,VALID,82.2567,VALID,347.035,VALID,23.213,VALID,23,VALID,0,
2012-11-24, 09:27:04,VALID,918.831,VALID,0,VALID,81.0445,VALID,347.357,VALID,23.1544,VALID,5,VALID,0,
2012-11-24, 09:28:04,VALID,918.681,VALID,0,VALID,80.1526,VALID,348.217,VALID,23.1154,VALID,22,VALID,0,
2012-11-24, 09:29:04,VALID,918.449,VALID,0,VALID,83.9567,VALID,349.076,VALID,23.1154,VALID,17,VALID,0,
2012-11-24, 09:30:04,VALID,918.614,VALID,0,VALID,83.0419,VALID,350.258,VALID,23.2343,VALID,36,VALID,0,
2012-11-24, 09:31:04,VALID,918.672,VALID,0,VALID,82.7674,VALID,350.795,VALID,23.3319,VALID,16,VALID,0,
2012-11-24, 09:32:04,VALID,918.699,VALID,0,VALID,83.423,VALID,351.44,VALID,23.5076,VALID,43,VALID,0,
2012-11-24, 09:33:04,VALID,918.654,VALID,0,VALID,82.2948,VALID,351.118,VALID,23.6442,VALID,23,VALID,0,
2012-11-24, 09:34:04,VALID,918.328,VALID,0,VALID,81.2809,VALID,349.936,VALID,23.7596,VALID,32,VALID,0,
2012-11-24, 09:35:04,VALID,918.884,VALID,0,VALID,80.3127,VALID,349.936,VALID,23.898,VALID,36,VALID,0,
2012-11-24, 09:36:04,VALID,918.608,VALID,0,VALID,79.5122,VALID,350.903,VALID,23.9957,VALID,9,VALID,0,
2012-11-24, 09:37:04,VALID,918.665,VALID,0,VALID,80.2974,VALID,352.622,VALID,24.0738,VALID,46,VALID,0,
2012-11-24, 09:38:04,VALID,918.635,VALID,0,VALID,79.6266,VALID,357.134,VALID,24.1714,VALID,21,VALID,0,
2012-11-24, 09:39:04,VALID,918.595,VALID,0,VALID,78.445,VALID,371.531,VALID,24.2495,VALID,345,VALID,0,
2012-11-24, 09:40:04,VALID,918.448,VALID,0,VALID,77.5835,VALID,389.152,VALID,24.269,VALID,346,VALID,0,
2012-11-24, 09:41:04,VALID,918.727,VALID,0,VALID,78.4983,VALID,424.393,VALID,24.3063,VALID,47,VALID,0,
2012-11-24, 09:42:04,VALID,918.578,VALID,0,VALID,76.4552,VALID,459.633,VALID,24.4057,VALID,3,VALID,0,
2012-11-24, 09:43:04,VALID,918.682,VALID,0,VALID,77.9418,VALID,488.427,VALID,24.5034,VALID,41,VALID,0,
2012-11-24, 09:44:04,VALID,918.833,VALID,0,VALID,76.44,VALID,506.155,VALID,24.5601,VALID,26,VALID,0,
2012-11-24, 09:45:04,VALID,918.633,VALID,0,VALID,76.4781,VALID,513.031,VALID,24.6791,VALID,30,VALID,0,
2012-11-24, 09:46:04,VALID,918.662,VALID,0,VALID,75.9673,VALID,503.039,VALID,24.5601,VALID,32,VALID,0,
2012-11-24, 09:47:04,VALID,918.689,VALID,0,VALID,76.1427,VALID,487.568,VALID,24.4625,VALID,30,VALID,0,
2012-11-24, 09:48:04,VALID,919.222,VALID,0,VALID,75.1288,VALID,457.27,VALID,24.4216,VALID,27,VALID,0,
2012-11-24, 09:49:04,VALID,918.645,VALID,0,VALID,75.205,VALID,415.045,VALID,24.4039,VALID,37,VALID,0,
2012-11-24, 09:50:04,VALID,918.685,VALID,0,VALID,77.1337,VALID,383.243,VALID,24.3825,VALID,359,VALID,0,
2012-11-24, 09:51:04,VALID,918.893,VALID,0,VALID,75.7768,VALID,396.243,VALID,24.4002,VALID,45,VALID,0,
2012-11-24, 09:52:04,VALID,918.534,VALID,0,VALID,78.0257,VALID,412.144,VALID,24.482,VALID,9,VALID,0,
2012-11-24, 09:53:04,VALID,918.757,VALID,0,VALID,73.3601,VALID,414.078,VALID,24.4606,VALID,13,VALID,0,
2012-11-24, 09:54:04,VALID,918.562,VALID,0,VALID,74.3436,VALID,474.03,VALID,24.4234,VALID,342,VALID,0,
2012-11-24, 09:55:04,VALID,918.9,VALID,0,VALID,75.1593,VALID,578.785,VALID,24.402,VALID,12,VALID,0,
2012-11-24, 09:56:04,VALID,918.717,VALID,0,VALID,75.5404,VALID,588.133,VALID,24.5192,VALID,355,VALID,0,
2012-11-24, 09:57:04,VALID,918.639,VALID,0,VALID,75.5099,VALID,573.413,VALID,24.6754,VALID,36,VALID,0,
2012-11-24, 09:58:04,VALID,918.726,VALID,0,VALID,74.2368,VALID,520.123,VALID,24.7926,VALID,314,VALID,0,
2012-11-24, 09:59:04,VALID,918.659,VALID,0,VALID,75.1669,VALID,496.163,VALID,24.814,VALID,18,VALID,0,
2012-11-24, 10:00:04,VALID,918.772,VALID,0,VALID,74.1072,VALID,453.294,VALID,24.8511,VALID,15,VALID,0,
2012-11-24, 10:01:04,VALID,918.812,VALID,0,VALID,75.6319,VALID,457.377,VALID,24.7554,VALID,22,VALID,0,
2012-11-24, 10:02:04,VALID,918.727,VALID,0,VALID,75.0525,VALID,421.921,VALID,24.6382,VALID,31,VALID,0,
2012-11-24, 10:03:04,VALID,918.892,VALID,0,VALID,73.7947,VALID,390.334,VALID,24.5368,VALID,24,VALID,0,
2012-11-24, 10:04:04,VALID,920.527,VALID,0,VALID,73.4516,VALID,386.251,VALID,24.4429,VALID,36,VALID,0,
2012-11-24, 10:05:04,VALID,918.896,VALID,0,VALID,74.2826,VALID,384.424,VALID,24.482,VALID,34,VALID,0,
2012-11-24, 10:06:04,VALID,918.794,VALID,0,VALID,74.3054,VALID,376.689,VALID,24.4801,VALID,19,VALID,0,
2012-11-24, 10:07:04,VALID,918.676,VALID,0,VALID,77.5225,VALID,374.755,VALID,24.5192,VALID,13,VALID,0,
2012-11-24, 10:08:04,VALID,918.669,VALID,0,VALID,73.6803,VALID,369.705,VALID,24.5954,VALID,325,VALID,0,
2012-11-24, 10:09:04,VALID,918.698,VALID,0,VALID,75.022,VALID,377.441,VALID,24.6949,VALID,8,VALID,0,
2012-11-24, 10:10:04,VALID,918.547,VALID,0,VALID,75.731,VALID,380.986,VALID,24.773,VALID,8,VALID,0,
2012-11-24, 10:11:04,VALID,919.041,VALID,0,VALID,70.2727,VALID,383.135,VALID,24.7535,VALID,347,VALID,0,
2012-11-24, 10:12:04,VALID,918.523,VALID,0,VALID,71.8354,VALID,378.945,VALID,24.5778,VALID,340,VALID,0,
2012-11-24, 10:13:04,VALID,918.736,VALID,0,VALID,74.7171,VALID,382.813,VALID,24.5992,VALID,36,VALID,0,
2012-11-24, 10:14:04,VALID,918.701,VALID,0,VALID,74.8467,VALID,383.78,VALID,24.6577,VALID,311,VALID,0,
2012-11-24, 10:15:04,VALID,919.07,VALID,0,VALID,74.6104,VALID,385.177,VALID,24.7926,VALID,311,VALID,0,
2012-11-24, 10:16:04,VALID,919.345,VALID,0,VALID,74.1911,VALID,389.367,VALID,24.8921,VALID,313,VALID,0,
2012-11-24, 10:17:04,VALID,918.667,VALID,0,VALID,76.7678,VALID,394.309,VALID,24.9507,VALID,24,VALID,0,
2012-11-24, 10:18:04,VALID,918.869,VALID,0,VALID,76.379,VALID,397.103,VALID,25.0893,VALID,27,VALID,0,
2012-11-24, 10:19:04,VALID,918.492,VALID,0,VALID,71.7592,VALID,400.863,VALID,25.1264,VALID,336,VALID,0,
2012-11-24, 10:20:04,VALID,919.072,VALID,0,VALID,74.0996,VALID,405.805,VALID,25.146,VALID,5,VALID,0,
2012-11-24, 10:21:04,VALID,918.685,VALID,0,VALID,71.9879,VALID,407.524,VALID,25.187,VALID,2,VALID,0,
2012-11-24, 10:22:04,VALID,918.612,VALID,0,VALID,72.613,VALID,411.715,VALID,25.0679,VALID,4,VALID,0,
2012-11-24, 10:23:04,VALID,918.92,VALID,0,VALID,73.627,VALID,414.186,VALID,24.9702,VALID,25,VALID,0,
2012-11-24, 10:24:04,VALID,918.565,VALID,0,VALID,76.0131,VALID,416.334,VALID,24.8921,VALID,29,VALID,0,
2012-11-24, 10:25:04,VALID,918.813,VALID,0,VALID,73.8404,VALID,417.301,VALID,24.9721,VALID,350,VALID,0,
2012-11-24, 10:26:04,VALID,919.178,VALID,0,VALID,75.5252,VALID,416.764,VALID,25.0874,VALID,360,VALID,0,
2012-11-24, 10:27:04,VALID,918.721,VALID,0,VALID,76.623,VALID,416.657,VALID,25.2241,VALID,22,VALID,0,
2012-11-24, 10:28:04,VALID,918.61,VALID,0,VALID,75.7234,VALID,410.318,VALID,25.3022,VALID,6,VALID,0,
2012-11-24, 10:29:04,VALID,918.748,VALID,0,VALID,74.7247,VALID,397.962,VALID,25.3041,VALID,349,VALID,0,
2012-11-24, 10:30:04,VALID,918.696,VALID,0,VALID,76.4934,VALID,383.028,VALID,25.2632,VALID,360,VALID,0,
2012-11-24, 10:31:04,VALID,918.774,VALID,0,VALID,73.4897,VALID,370.565,VALID,25.1264,VALID,27,VALID,0,
2012-11-24, 10:32:04,VALID,918.691,VALID,0,VALID,74.74,VALID,361.539,VALID,25.0307,VALID,18,VALID,0,
2012-11-24, 10:33:04,VALID,918.774,VALID,0,VALID,75.1821,VALID,354.448,VALID,24.9702,VALID,21,VALID,0,
2012-11-24, 10:34:04,VALID,918.729,VALID,0,VALID,75.5404,VALID,353.052,VALID,25.0112,VALID,4,VALID,0,
2012-11-24, 10:35:04,VALID,918.719,VALID,0,VALID,76.2723,VALID,345.208,VALID,25.0093,VALID,28,VALID,0,
2012-11-24, 10:36:04,VALID,918.648,VALID,0,VALID,77.3243,VALID,327.588,VALID,25.0288,VALID,1,VALID,0,
2012-11-24, 10:37:04,VALID,918.744,VALID,0,VALID,76.3333,VALID,309.645,VALID,24.9916,VALID,3,VALID,0,
2012-11-24, 10:38:04,VALID,918.768,VALID,0,VALID,77.5759,VALID,301.158,VALID,24.9311,VALID,315,VALID,0,
2012-11-24, 10:39:04,VALID,918.53,VALID,0,VALID,77.7817,VALID,292.885,VALID,24.9311,VALID,342,VALID,0,
2012-11-24, 10:40:04,VALID,918.618,VALID,0,VALID,78.2772,VALID,285.149,VALID,24.9311,VALID,33,VALID,0,
2012-11-24, 10:41:04,VALID,918.683,VALID,0,VALID,76.9584,VALID,323.183,VALID,24.8707,VALID,42,VALID,0,
2012-11-24, 10:42:04,VALID,918.708,VALID,0,VALID,76.4934,VALID,345.531,VALID,24.8316,VALID,15,VALID,0,
2012-11-24, 10:43:04,VALID,918.682,VALID,0,VALID,77.8732,VALID,350.258,VALID,24.7944,VALID,32,VALID,0,
2012-11-24, 10:44:04,VALID,918.751,VALID,0,VALID,79.3598,VALID,358.639,VALID,24.7926,VALID,22,VALID,0,
2012-11-24, 10:45:04,VALID,918.785,VALID,0,VALID,79.497,VALID,340.481,VALID,24.8316,VALID,11,VALID,0,
2012-11-24, 10:46:04,VALID,918.807,VALID,0,VALID,79.4894,VALID,320.39,VALID,24.9311,VALID,27,VALID,0,
2012-11-24, 10:47:04,VALID,918.63,VALID,0,VALID,78.5364,VALID,325.976,VALID,24.9683,VALID,18,VALID,0,
2012-11-24, 10:48:04,VALID,918.55,VALID,0,VALID,77.3929,VALID,277.628,VALID,24.9878,VALID,26,VALID,0,
2012-11-24, 10:49:04,VALID,918.717,VALID,0,VALID,77.0194,VALID,250.23,VALID,24.8316,VALID,31,VALID,0,
2012-11-24, 10:50:04,VALID,918.93,VALID,0,VALID,78.1019,VALID,241.205,VALID,24.6754,VALID,353,VALID,0,
2012-11-24, 10:51:04,VALID,918.618,VALID,0,VALID,78.5212,VALID,230.998,VALID,24.5992,VALID,30,VALID,0,
2012-11-24, 10:52:04,VALID,918.719,VALID,0,VALID,79.1463,VALID,263.661,VALID,24.5387,VALID,27,VALID,0,
2012-11-24, 10:53:04,VALID,918.425,VALID,0,VALID,78.8414,VALID,279.992,VALID,24.5192,VALID,355,VALID,0,
2012-11-24, 10:54:04,VALID,918.715,VALID,0,VALID,79.7028,VALID,332.101,VALID,24.482,VALID,26,VALID,0,
2012-11-24, 10:55:04,VALID,918.914,VALID,0,VALID,79.84,VALID,589.637,VALID,24.5192,VALID,35,VALID,0,
2012-11-24, 10:56:04,VALID,918.588,VALID,0,VALID,79.0015,VALID,377.011,VALID,24.5992,VALID,35,VALID,0,
2012-11-24, 10:57:04,VALID,918.64,VALID,0,VALID,80.145,VALID,305.563,VALID,24.6168,VALID,35,VALID,0,
2012-11-24, 10:58:04,VALID,918.92,VALID,0,VALID,78.0638,VALID,314.588,VALID,24.734,VALID,35,VALID,0,
2012-11-24, 10:59:04,VALID,918.66,VALID,0,VALID,78.605,VALID,351.333,VALID,24.8316,VALID,174,VALID,0,
2012-11-24, 11:00:04,VALID,918.693,VALID,0,VALID,76.6535,VALID,415.905,VALID,24.9097,VALID,174,VALID,0,
2012-11-24, 11:01:04,VALID,918.509,VALID,0,VALID,76.7525,VALID,337.473,VALID,24.9488,VALID,174,VALID,0,
2012-11-24, 11:02:04,VALID,918.733,VALID,0,VALID,76.5925,VALID,331.241,VALID,24.9097,VALID,174,VALID,0,
2012-11-24, 11:03:04,VALID,918.597,VALID,0,VALID,78.5059,VALID,322.431,VALID,24.8511,VALID,250,VALID,0,
2012-11-24, 11:04:04,VALID,918.615,VALID,0,VALID,79.1158,VALID,314.05,VALID,24.8707,VALID,250,VALID,0,
2012-11-24, 11:05:04,VALID,918.623,VALID,0,VALID,79.8858,VALID,308.786,VALID,24.8511,VALID,38,VALID,0,
2012-11-24, 11:06:04,VALID,918.678,VALID,0,VALID,79.1158,VALID,345.423,VALID,24.6968,VALID,87,VALID,0,
2012-11-24, 11:07:04,VALID,918.561,VALID,0,VALID,80.2288,VALID,504.006,VALID,24.6168,VALID,44,VALID,0,
2012-11-24, 11:08:04,VALID,918.599,VALID,0,VALID,81.0903,VALID,442.335,VALID,24.6363,VALID,30,VALID,0,
2012-11-24, 11:09:04,VALID,918.601,VALID,0,VALID,77.3472,VALID,491.328,VALID,24.6754,VALID,110,VALID,0,
2012-11-24, 11:10:04,VALID,918.709,VALID,0,VALID,79.5122,VALID,655.391,VALID,24.6577,VALID,26,VALID,0,
2012-11-24, 11:11:04,VALID,918.524,VALID,0,VALID,79.032,VALID,411.285,VALID,24.8335,VALID,41,VALID,0,
2012-11-24, 11:12:04,VALID,918.53,VALID,0,VALID,78.3763,VALID,466.187,VALID,24.8335,VALID,270,VALID,0,
2012-11-24, 11:13:04,VALID,918.4,VALID,0,VALID,77.5911,VALID,587.381,VALID,24.5992,VALID,248,VALID,0,
2012-11-24, 11:14:04,VALID,918.606,VALID,0,VALID,80.084,VALID,563.744,VALID,24.5406,VALID,41,VALID,0,
2012-11-24, 11:15:04,VALID,918.505,VALID,0,VALID,78.2467,VALID,512.387,VALID,24.6773,VALID,24,VALID,0,
2012-11-24, 11:16:04,VALID,918.447,VALID,0,VALID,77.6216,VALID,473.063,VALID,24.7944,VALID,330,VALID,0,
2012-11-24, 11:17:04,VALID,918.608,VALID,0,VALID,79.1082,VALID,556.008,VALID,24.8902,VALID,57,VALID,0,
2012-11-24, 11:18:04,VALID,918.553,VALID,0,VALID,78.3306,VALID,661.945,VALID,25.105,VALID,210,VALID,0,
2012-11-24, 11:19:04,VALID,918.32,VALID,0,VALID,75.8682,VALID,462.964,VALID,25.1636,VALID,227,VALID,0,
2012-11-24, 11:20:04,VALID,918.503,VALID,0,VALID,78.1095,VALID,404.838,VALID,25.2808,VALID,342,VALID,0,
2012-11-24, 11:21:04,VALID,918.437,VALID,0,VALID,75.2126,VALID,395.276,VALID,25.3784,VALID,297,VALID,0,
2012-11-24, 11:22:04,VALID,918.404,VALID,0,VALID,77.0727,VALID,482.411,VALID,25.3784,VALID,254,VALID,0,
2012-11-24, 11:23:04,VALID,918.371,VALID,0,VALID,76.4934,VALID,501.32,VALID,25.4956,VALID,338,VALID,0,
2012-11-24, 11:24:04,VALID,918.221,VALID,0,VALID,77.553,VALID,478.65,VALID,25.6128,VALID,43,VALID,0,
2012-11-24, 11:25:04,VALID,918.079,VALID,0,VALID,74.9458,VALID,481.121,VALID,25.6714,VALID,230,VALID,0,
2012-11-24, 11:26:04,VALID,918.413,VALID,0,VALID,74.7171,VALID,504.114,VALID,25.6519,VALID,214,VALID,0,
2012-11-24, 11:27:04,VALID,918.438,VALID,0,VALID,73.8404,VALID,512.387,VALID,25.4565,VALID,246,VALID,0,
2012-11-24, 11:28:04,VALID,918.331,VALID,0,VALID,76.6077,VALID,529.255,VALID,25.2027,VALID,239,VALID,0,
2012-11-24, 11:29:04,VALID,917.947,VALID,0,VALID,77.8961,VALID,648.407,VALID,25.0836,VALID,336,VALID,0,
2012-11-24, 11:30:04,VALID,916.545,VALID,0,VALID,77.1109,VALID,583.62,VALID,25.064,VALID,354,VALID,0,
2012-11-24, 11:31:04,VALID,918.339,VALID,0,VALID,76.1808,VALID,569.975,VALID,25.0659,VALID,217,VALID,0,
2012-11-24, 11:32:04,VALID,918.367,VALID,0,VALID,77.7512,VALID,496.808,VALID,24.9878,VALID,351,VALID,0,
2012-11-24, 11:33:04,VALID,918.066,VALID,0,VALID,76.8821,VALID,667.532,VALID,25.0464,VALID,14,VALID,0,